VSP181 SBVT-SBBR

Flight info

Callsign VSP181
Flight time N/A
Altitude 36000
Route OPLOX UZ40 OPGOL
Aircraft B738/M-SDE2E3FGHIRWXY/LB1

Departure

Time 2026-04-26 05:22
Airport Eurico de Aguiar Salles International Airport (SBVT)

Arrival

Time N/A
Airport Presidente Juscelino Kubitschek International Airport (SBBR)
Time Latitude Longitude Altitude Speed Heading
2026-04-26 05:19 -20.26690 -40.27939 13 ft 1 kts 33°
2026-04-26 05:19 -20.26678 -40.27932 13 ft 2 kts 27°
2026-04-26 05:19 -20.26660 -40.27923 13 ft 3 kts 24°
2026-04-26 05:20 -20.26633 -40.27910 13 ft 4 kts 24°
2026-04-26 05:20 -20.26607 -40.27889 13 ft 4 kts 54°
2026-04-26 05:20 -20.26588 -40.27863 13 ft 3 kts 21°
2026-04-26 05:20 -20.26555 -40.27859 12 ft 4 kts 360°
2026-04-26 05:21 -20.26531 -40.27861 12 ft 2 kts 354°
2026-04-26 05:21 -20.26339 -40.27889 10 ft 64 kts 352°
2026-04-26 05:21 -20.25650 -40.27992 16 ft 133 kts 352°
2026-04-26 05:21 -20.24532 -40.28159 36 ft 184 kts 352°
2026-04-26 05:22 -20.23226 -40.28330 524 ft 194 kts 354°
2026-04-26 05:22 -20.21841 -40.28450 961 ft 214 kts
2026-04-26 05:22 -20.20464 -40.27740 1451 ft 236 kts 44°
2026-04-26 05:22 -20.19409 -40.26326 1987 ft 253 kts 56°
2026-04-26 05:23 -20.18390 -40.24756 2503 ft 259 kts 53°
2026-04-26 05:23 -20.17282 -40.23251 3008 ft 261 kts 50°
2026-04-26 05:23 -20.16012 -40.21900 3500 ft 262 kts 31°
2026-04-26 05:23 -20.14262 -40.21401 4013 ft 264 kts 356°
2026-04-26 05:24 -20.12534 -40.21957 4521 ft 266 kts 329°
2026-04-26 05:24 -20.11177 -40.23307 5031 ft 269 kts 302°
2026-04-26 05:24 -20.10566 -40.25139 5522 ft 270 kts 274°
2026-04-26 05:24 -20.10812 -40.27108 6039 ft 272 kts 257°
2026-04-26 05:25 -20.10824 -40.29121 6524 ft 275 kts 288°
2026-04-26 05:25 -20.09991 -40.30920 7047 ft 276 kts 301°
2026-04-26 05:25 -20.09091 -40.32725 7541 ft 279 kts 293°
2026-04-26 05:25 -20.08433 -40.34674 8042 ft 280 kts 286°
2026-04-26 05:26 -20.07925 -40.36673 8585 ft 281 kts 284°
2026-04-26 05:26 -20.07456 -40.38692 9213 ft 284 kts 284°
2026-04-26 05:26 -20.06900 -40.40710 9836 ft 288 kts 289°
2026-04-26 05:26 -20.06230 -40.42747 10398 ft 296 kts 289°
2026-04-26 05:27 -20.05518 -40.44868 10567 ft 320 kts 289°
2026-04-26 05:27 -20.04750 -40.47171 10663 ft 344 kts 289°
2026-04-26 05:27 -20.03931 -40.49637 11150 ft 355 kts 289°
2026-04-26 05:27 -20.03112 -40.52111 11798 ft 360 kts 289°
2026-04-26 05:28 -20.02286 -40.54606 12499 ft 363 kts 289°
2026-04-26 05:28 -20.01442 -40.57158 13190 ft 366 kts 289°
2026-04-26 05:28 -20.00598 -40.59705 13864 ft 370 kts 289°
2026-04-26 05:28 -19.99738 -40.62302 14547 ft 373 kts 289°
2026-04-26 05:29 -19.98879 -40.64896 15207 ft 377 kts 289°
2026-04-26 05:29 -19.98001 -40.67543 15869 ft 381 kts 289°
2026-04-26 05:29 -19.97114 -40.70216 16504 ft 384 kts 289°
2026-04-26 05:29 -19.96228 -40.72887 17125 ft 388 kts 289°
2026-04-26 05:30 -19.95328 -40.75598 17730 ft 391 kts 289°
2026-04-26 05:30 -19.94415 -40.78344 18322 ft 395 kts 289°
2026-04-26 05:30 -19.93503 -40.81090 18898 ft 398 kts 289°
2026-04-26 05:30 -19.92580 -40.83863 19455 ft 402 kts 289°
2026-04-26 05:31 -19.91640 -40.86694 20011 ft 405 kts 289°
2026-04-26 05:31 -19.90698 -40.89529 20546 ft 408 kts 289°
2026-04-26 05:31 -19.89750 -40.92376 21065 ft 411 kts 289°
2026-04-26 05:31 -19.88795 -40.95245 21574 ft 414 kts 289°
2026-04-26 05:32 -19.87837 -40.98119 22062 ft 417 kts 289°
2026-04-26 05:32 -19.86802 -41.00993 22498 ft 421 kts 294°
2026-04-26 05:32 -19.85536 -41.03800 22945 ft 423 kts 297°
2026-04-26 05:32 -19.84169 -41.06598 23368 ft 426 kts 297°
2026-04-26 05:33 -19.82773 -41.09371 23786 ft 429 kts 298°
2026-04-26 05:33 -19.81357 -41.12147 24188 ft 431 kts 298°
2026-04-26 05:33 -19.79906 -41.14966 24589 ft 434 kts 299°
2026-04-26 05:33 -19.78458 -41.17767 24974 ft 436 kts 299°
2026-04-26 05:34 -19.76998 -41.20577 25348 ft 439 kts 299°
2026-04-26 05:34 -19.75522 -41.23411 25718 ft 441 kts 299°
2026-04-26 05:34 -19.74025 -41.26275 26076 ft 444 kts 299°
2026-04-26 05:34 -19.72522 -41.29144 26431 ft 446 kts 299°
2026-04-26 05:35 -19.71017 -41.32015 26769 ft 448 kts 299°
2026-04-26 05:35 -19.69510 -41.34888 27105 ft 451 kts 299°
2026-04-26 05:35 -19.67963 -41.37836 27432 ft 453 kts 299°
2026-04-26 05:35 -19.66438 -41.40738 27752 ft 455 kts 299°
2026-04-26 05:36 -19.64887 -41.43689 28061 ft 457 kts 299°
2026-04-26 05:36 -19.63347 -41.46612 28366 ft 459 kts 299°
2026-04-26 05:36 -19.61771 -41.49602 28661 ft 462 kts 299°
2026-04-26 05:36 -19.60208 -41.52567 28993 ft 463 kts 299°
2026-04-26 05:37 -19.58657 -41.55512 29369 ft 462 kts 299°
2026-04-26 05:37 -19.57087 -41.58488 29752 ft 462 kts 299°
2026-04-26 05:37 -19.55525 -41.61450 30131 ft 461 kts 299°
2026-04-26 05:37 -19.53959 -41.64419 30509 ft 460 kts 299°
2026-04-26 05:38 -19.52402 -41.67369 30875 ft 459 kts 299°
2026-04-26 05:38 -19.50846 -41.70317 31233 ft 458 kts 299°
2026-04-26 05:38 -19.49300 -41.73243 31580 ft 458 kts 299°
2026-04-26 05:38 -19.47740 -41.76195 31925 ft 457 kts 299°
2026-04-26 05:39 -19.46202 -41.79104 32259 ft 456 kts 299°
2026-04-26 05:39 -19.44644 -41.82051 32590 ft 456 kts 299°
2026-04-26 05:39 -19.43116 -41.84939 32906 ft 455 kts 299°
2026-04-26 05:39 -19.41572 -41.87854 33219 ft 454 kts 299°
2026-04-26 05:40 -19.40036 -41.90760 33526 ft 454 kts 299°
2026-04-26 05:40 -19.38496 -41.93696 33829 ft 453 kts 299°
2026-04-26 05:40 -19.36984 -41.96586 34120 ft 452 kts 298°
2026-04-26 05:40 -19.35449 -41.99523 34408 ft 452 kts 298°
2026-04-26 05:41 -19.33940 -42.02410 34686 ft 451 kts 298°
2026-04-26 05:41 -19.32383 -42.05308 34961 ft 451 kts 300°
2026-04-26 05:41 -19.30800 -42.08125 35227 ft 450 kts 301°
2026-04-26 05:41 -19.29726 -42.10025 35400 ft 450 kts 301°